Algona, IA

7:45 PM CST on February 10, 2016 (GMT -0600)
Algona Municipal

Weather History for KAXA - November, 2012

Change the Weather History Date:

Friday, November 30, 2012

  Actual Average Record
Temperature  
Mean Temperature 34 °F -  
Max Temperature 44 °F 36 °F 51 °F (2011)
Min Temperature 23 °F 23 °F 6 °F (2014)
Degree Days  
Heating Degree Days 32    
Moisture  
Dew Point 30 °F    
Average Humidity 85    
Maximum Humidity 100    
Minimum Humidity 66    
Precipitation  
Precipitation 0.00 in - - ()
Sea Level Pressure  
Sea Level Pressure 30.03 in    
Wind  
Wind Speed 8 mph (East)    
Max Wind Speed 15 mph    
Max Gust Speed 22 mph    
Visibility 5 miles    
Events      
Averages and records for this station are not official NWS values.
T = Trace of Precipitation, MM = Missing Value Source: NWS Daily Summary

Daily Weather History Graph

Daily Weather History Graph

Search for Another Location

Airport or City:

Trip Planner

Search our weather history database for the weather conditions in past years. The results will help you decide how hot, cold, wet, or windy it might be!

Date:

Astronomy

Nov. 30, 2012 Rise Set
Actual Time 7:28 AM CST 4:43 PM CST
Civil Twilight 6:56 AM CST 5:15 PM CST
Nautical Twilight 6:21 AM CST 5:50 PM CST
Astronomical Twilight 5:46 AM CST 6:24 PM CST
Moon 6:39 PM CST (11/30) 9:00 AM CST (11/30)
Length of Visible Light 10h 18m
Length of Day
9h 15m
Waning Gibbous, 96% of the Moon is Illuminated
Nov 30
Waning Gibbous
Dec 6
Last Quarter
Dec 13
New
Dec 19
First Quarter
Dec 28
Full

Hourly Weather History & Observations

Time (CST) Temp. Windchill Dew Point Humidity Pressure Visibility Wind Dir Wind Speed Gust Speed Precip Events Conditions
12:15 AM 32.0 °F 24.8 °F 28.4 °F 87% 29.96 in 9.0 mi ENE 8.1 mph - N/A   Mostly Cloudy
12:35 AM 32.0 °F 26.4 °F 28.4 °F 87% 29.96 in 8.0 mi East 5.8 mph - N/A   Partly Cloudy
12:55 AM 30.2 °F 24.3 °F 26.6 °F 86% 29.95 in 7.0 mi ENE 5.8 mph - N/A   Partly Cloudy
1:15 AM 32.0 °F 27.5 °F 28.4 °F 87% 29.95 in 7.0 mi East 4.6 mph - N/A   Clear
1:35 AM 32.0 °F 24.8 °F 28.4 °F 87% 29.95 in 8.0 mi East 8.1 mph - N/A   Clear
1:55 AM 32.0 °F 27.5 °F 28.4 °F 87% 29.96 in 8.0 mi ENE 4.6 mph - N/A   Clear
2:15 AM 30.2 °F 22.6 °F 28.4 °F 93% 29.96 in 7.0 mi ENE 8.1 mph - N/A   Clear
2:35 AM 30.2 °F 24.3 °F 26.6 °F 86% 29.98 in 7.0 mi NE 5.8 mph - N/A   Clear
2:55 AM 28.4 °F 21.2 °F 26.6 °F 93% 29.98 in 7.0 mi NNE 6.9 mph - N/A   Clear
3:15 AM 28.4 °F 22.2 °F 26.6 °F 93% 29.99 in 6.0 mi NE 5.8 mph - N/A   Clear
3:35 AM 26.6 °F - 24.8 °F 93% 29.98 in 6.0 mi Calm Calm - N/A   Clear
3:55 AM 26.6 °F 20.0 °F 23.0 °F 86% 29.99 in 6.0 mi NNE 5.8 mph - N/A   Clear
4:15 AM 26.6 °F 21.2 °F 24.8 °F 93% 29.99 in 6.0 mi NE 4.6 mph - N/A   Clear
4:35 AM 26.6 °F 18.2 °F 24.8 °F 93% 29.99 in 6.0 mi NNE 8.1 mph - N/A   Clear
4:55 AM 26.6 °F 18.2 °F 24.8 °F 93% 29.99 in 5.0 mi NE 8.1 mph - N/A   Clear
5:15 AM 24.8 °F 16.9 °F 23.0 °F 93% 30.01 in 5.0 mi North 6.9 mph - N/A   Clear
5:35 AM 24.8 °F 16.1 °F 23.0 °F 93% 30.01 in 5.0 mi NNE 8.1 mph - N/A   Clear
5:55 AM 24.8 °F 16.1 °F 23.0 °F 93% 30.01 in 5.0 mi NE 8.1 mph - N/A   Clear
6:15 AM 24.8 °F 16.9 °F 23.0 °F 93% 30.00 in 4.0 mi NE 6.9 mph - N/A   Clear
6:35 AM 24.8 °F 19.1 °F 23.0 °F 93% 30.01 in 5.0 mi NNE 4.6 mph - N/A   Partly Cloudy
6:55 AM 24.8 °F 19.1 °F 23.0 °F 93% 30.02 in 4.0 mi NNE 4.6 mph - N/A   Scattered Clouds
7:15 AM 23.0 °F 13.9 °F 21.2 °F 93% 30.03 in 4.0 mi North 8.1 mph - N/A   Partly Cloudy
7:35 AM 23.0 °F 14.7 °F 21.2 °F 93% 30.04 in 3.0 mi North 6.9 mph - N/A   Clear
7:55 AM 24.8 °F 17.9 °F 23.0 °F 93% 30.05 in 3.0 mi North 5.8 mph - N/A   Clear
8:15 AM 24.8 °F 16.1 °F 23.0 °F 93% 30.05 in 3.0 mi NNE 8.1 mph - N/A   Clear
8:35 AM 26.6 °F 19.1 °F 24.8 °F 93% 30.06 in 3.0 mi NNE 6.9 mph - N/A   Clear
8:55 AM 28.4 °F 20.4 °F 26.6 °F 93% 30.07 in 4.0 mi NNE 8.1 mph - N/A   Clear
9:15 AM 30.2 °F 22.6 °F 28.4 °F 93% 30.07 in 4.0 mi NNE 8.1 mph - N/A   Clear
9:35 AM 32.0 °F 23.6 °F 28.4 °F 87% 30.07 in 4.0 mi NE 10.4 mph - N/A   Clear
9:55 AM 33.8 °F 26.4 °F 30.2 °F 87% 30.08 in 4.0 mi ENE 9.2 mph - N/A   Clear
10:15 AM 35.6 °F 28.0 °F 32.0 °F 87% 30.08 in 5.0 mi East 10.4 mph - N/A   Haze
10:35 AM 37.4 °F 32.8 °F 32.0 °F 81% 30.09 in 5.0 mi East 5.8 mph - N/A   Haze
10:55 AM 39.2 °F 35.0 °F 32.0 °F 75% 30.10 in 5.0 mi East 5.8 mph - N/A   Haze
11:15 AM 39.2 °F 35.0 °F 32.0 °F 75% 30.09 in 5.0 mi East 5.8 mph - N/A   Haze
11:35 AM 41.0 °F 36.4 °F 33.8 °F 76% 30.08 in 6.0 mi East 6.9 mph - N/A   Haze
11:55 AM 42.8 °F 38.6 °F 33.8 °F 70% 30.08 in 6.0 mi East 6.9 mph - N/A   Haze
12:15 PM 42.8 °F 39.3 °F 33.8 °F 70% 30.08 in 6.0 mi East 5.8 mph - N/A   Haze
12:35 PM 42.8 °F 38.6 °F 33.8 °F 70% 30.07 in 6.0 mi East 6.9 mph - N/A   Haze
12:55 PM 44.6 °F 40.2 °F 33.8 °F 66% 30.05 in 6.0 mi East 8.1 mph - N/A   Haze
1:15 PM 44.6 °F 40.2 °F 33.8 °F 66% 30.05 in 7.0 mi East 8.1 mph - N/A   Clear
1:35 PM 44.6 °F 40.7 °F 33.8 °F 66% 30.05 in 6.0 mi East 6.9 mph - N/A   Haze
1:55 PM 44.6 °F 39.2 °F 33.8 °F 66% 30.05 in 6.0 mi ENE 10.4 mph - N/A   Haze
2:15 PM 44.6 °F 40.2 °F 33.8 °F 66% 30.05 in 7.0 mi East 8.1 mph - N/A   Clear
2:35 PM 44.6 °F 40.7 °F 33.8 °F 66% 30.05 in 6.0 mi East 6.9 mph - N/A   Haze
2:55 PM 44.6 °F 41.4 °F 33.8 °F 66% 30.05 in 5.0 mi East 5.8 mph - N/A   Haze
3:15 PM 44.6 °F 40.7 °F 35.6 °F 71% 30.06 in 6.0 mi East 6.9 mph - N/A   Haze
3:35 PM 44.6 °F 40.2 °F 33.8 °F 66% 30.06 in 6.0 mi East 8.1 mph - N/A   Haze
3:55 PM 44.6 °F 40.7 °F 33.8 °F 66% 30.06 in 6.0 mi ESE 6.9 mph - N/A   Haze
4:15 PM 42.8 °F 38.0 °F 33.8 °F 70% 30.06 in 6.0 mi East 8.1 mph - N/A   Haze
4:35 PM 42.8 °F 37.0 °F 33.8 °F 70% 30.05 in 5.0 mi East 10.4 mph - N/A   Haze
4:55 PM 41.0 °F 35.2 °F 33.8 °F 76% 30.05 in 4.0 mi East 9.2 mph - N/A   Haze
5:15 PM 39.2 °F 33.6 °F 32.0 °F 75% 30.05 in 5.0 mi East 8.1 mph - N/A   Haze
5:35 PM 37.4 °F 30.8 °F 32.0 °F 81% 30.05 in 5.0 mi East 9.2 mph - N/A   Haze
5:55 PM 37.4 °F 30.3 °F 32.0 °F 81% 30.06 in 4.0 mi ESE 10.4 mph - N/A   Haze
6:15 PM 37.4 °F 29.3 °F 32.0 °F 81% 30.06 in 4.0 mi ESE 12.7 mph - N/A   Haze
6:35 PM 35.6 °F 27.5 °F 32.0 °F 87% 30.06 in 4.0 mi ESE 11.5 mph - N/A   Partly Cloudy
6:55 PM 35.6 °F 27.1 °F 32.0 °F 87% 30.05 in 3.0 mi ESE 12.7 mph - N/A   Mostly Cloudy
7:15 PM 35.6 °F 26.6 °F 32.0 °F 87% 30.05 in 3.0 mi ESE 13.8 mph - N/A   Mostly Cloudy
7:35 PM 33.8 °F 23.9 °F 32.0 °F 93% 30.04 in 3.0 mi ESE 15.0 mph - N/A   Mostly Cloudy
7:55 PM 33.8 °F 23.9 °F 32.0 °F 93% 30.03 in 3.0 mi ESE 15.0 mph - N/A   Mostly Cloudy
8:15 PM 33.8 °F 23.9 °F 32.0 °F 93% 30.02 in 2.5 mi ESE 15.0 mph 21.9 mph N/A   Mostly Cloudy
8:35 PM 33.8 °F 23.9 °F 32.0 °F 93% 30.02 in 2.5 mi ESE 15.0 mph - N/A   Mostly Cloudy
8:55 PM 33.8 °F 24.3 °F 32.0 °F 93% 30.02 in 2.5 mi ESE 13.8 mph 20.7 mph N/A   Mostly Cloudy
9:15 PM 33.8 °F 25.3 °F 32.0 °F 93% 30.02 in 2.5 mi ESE 11.5 mph - N/A   Mostly Cloudy
9:35 PM 33.8 °F 24.8 °F 32.0 °F 93% 30.03 in 2.5 mi SE 12.7 mph - N/A   Overcast
9:55 PM 33.8 °F 23.9 °F 32.0 °F 93% 30.03 in 2.5 mi SE 15.0 mph - N/A   Overcast
10:15 PM 33.8 °F 24.3 °F 32.0 °F 93% 30.02 in 2.0 mi SE 13.8 mph - N/A   Overcast
10:35 PM 33.8 °F 24.8 °F 32.0 °F 93% 30.02 in 2.0 mi SE 12.7 mph - N/A   Overcast
10:55 PM 32.0 °F 22.5 °F 32.0 °F 100% 30.02 in 2.0 mi SE 12.7 mph - N/A   Overcast
11:15 PM 33.8 °F 24.3 °F 32.0 °F 93% 30.02 in 1.8 mi SE 13.8 mph - N/A   Overcast
11:35 PM 33.8 °F 24.8 °F 32.0 °F 93% 30.01 in 2.0 mi SE 12.7 mph - N/A   Mostly Cloudy
11:55 PM 33.8 °F 24.8 °F 32.0 °F 93% 30.01 in 1.8 mi SE 12.7 mph - N/A   Overcast